Wind_Speed
7 10 16 22 24 32 38 43 45 50 53 54 58 56 50 43 41 43 52 65 61 64 66 59 58 54 44 34 33 33 26 31 34 38 32 32 30 28 32 37 45 50 49
8 10 16 20 24 27 31 37 42 45 43 45 53 53 49 43 32 30 42 55 63 54 59 63 56 44 42 45 35 30 32 29 27 17 23 22 30 25 29 28 26 22 29
9 11 15 16 18 22 30 35 37 37 37 38 42 47 45 40 33 28 36 52 57 50 45 43 49 52 41 35 35 33 35 34 25 24 25 23 23 27 30 29 28 30 31
9 9 11 13 15 19 23 27 29 30 31 31 32 36 40 39 33 33 46 46 57 48 43 39 44 39 47 46 35 32 35 33 30 33 28 27 27 31 34 37 36 35 36
9 9 8 11 15 15 20 23 25 26 27 27 28 27 34 36 34 37 50 45 53 44 43 43 40 36 37 39 29 36 34 32 36 31 29 32 35 37 38 39 38 40 40
5 5 8 10 11 14 16 21 23 23 25 25 21 23 28 27 34 44 42 44 55 55 51 50 51 52 51 47 43 31 28 33 32 34 37 39 41 43 43 44 45 44 46
15 5 4 7 12 16 18 20 21 23 26 27 28 26 28 23 29 40 48 45 47 47 50 49 52 44 40 46 45 32 33 35 40 41 42 43 45 44 45 45 44 45 48
19 16 13 9 12 18 22 23 24 24 25 22 30 31 21 20 31 44 45 41 50 53 56 55 46 44 31 37 36 30 32 39 42 42 41 42 41 40 41 41 41 44 44
23 19 17 15 13 16 18 17 18 18 20 30 38 27 19 23 29 34 32 33 34 36 40 30 16 20 26 24 30 37 39 39 37 37 39 40 41 42 44 45 47 46 47
26 27 26 24 22 20 16 19 19 16 19 24 26 25 14 23 28 27 34 22 26 21 20 23 23 22 24 29 31 33 33 34 36 39 43 45 43 45 46 48 49 48 50
28 28 29 27 29 24 24 22 15 23 32 31 38 21 20 18 21 21 20 19 21 23 24 26 28 31 31 29 31 31 33 36 40 42 44 44 46 44 44 45 48 48 48
29 30 28 25 27 34 33 26 25 26 23 22 21 10 11 14 17 6 14 14 12 13 17 16 22 27 29 34 35 36 37 39 39 42 42 42 43 46 45 44 47 48 49
27 25 26 26 28 29 26 25 23 22 22 18 14 11 11 13 10 7 6 9 11 16 18 23 27 30 32 33 35 36 37 37 36 38 39 41 44 47 48 52 51 53 55
35 35 36 37 34 33 33 30 24 21 18 13 10 7 6 4 1 4 8 11 14 17 20 24 25 26 28 32 33 36 37 39 41 44 45 48 52 54 56 59 59 61 62
29 30 29 28 26 26 26 25 23 22 19 16 12 9 7 4 5 8 10 12 15 18 21 24 27 30 34 36 39 42 45 48 50 51 53 56 58 60 61 63 64 65 67
21 21 20 20 20 20 18 17 15 13 11 8 7 6 7 9 12 15 18 21 24 28 31 33 35 39 42 45 47 50 52 54 56 58 61 64 65 67 68 69 70 71 71
15 15 14 13 13 13 12 11 11 10 10 12 13 15 17 19 22 24 26 29 32 34 36 38 41 44 47 50 52 53 55 58 60 62 64 65 67 68 68 69 70 72 73
8 8 8 9 9 10 10 12 13 15 17 18 20 22 23 25 27 29 32 34 37 39 41 44 48 50 52 54 55 57 59 61 62 64 66 68 69 70 70 71 72 73 74
6 8 9 11 14 16 19 22 25 26 28 29 29 30 30 32 34 37 40 43 44 46 49 52 54 57 58 60 61 62 63 64 65 67 69 69 69 69 70 71 72 72 73
11 13 16 19 21 24 26 27 27 29 30 31 31 32 34 37 41 45 48 50 53 55 57 59 60 60 61 62 64 66 68 69 69 70 70 70 70 71 72 72 73 74 75
19 22 25 27 29 31 30 31 33 34 34 35 37 39 43 47 50 52 53 54 57 58 60 60 60 62 63 64 66 68 70 72 73 74 74 74 74 75 75 75 75 75 76
26 29 32 33 35 36 38 38 38 37 39 41 44 47 51 53 54 56 57 58 59 60 60 59 61 63 66 68 72 75 77 79 80 80 79 79 78 78 77 77 77 77 78
33 35 36 37 39 40 41 40 41 44 46 49 52 54 55 56 57 57 58 59 60 61 62 65 68 71 74 79 81 82 83 83 82 81 80 79 79 79 79 80 81 82 83
38 39 41 42 43 44 44 45 48 51 53 55 56 56 56 55 56 57 60 63 67 70 72 74 77 80 82 83 84 84 83 82 81 80 80 80 81 82 84 85 86 86 86
40 41 43 43 45 46 49 52 55 57 57 57 57 57 56 58 60 63 66 70 73 76 78 80 82 83 83 82 82 81 81 81 81 82 83 83 83 83 83 83 83 83 83
41 43 44 45 48 52 55 57 58 58 57 56 56 58 61 65 68 72 75 77 78 80 81 81 80 80 79 79 79 79 79 80 80 81 80 80 79 78 78 77 77 76 76
Wind_Direction
234 223 211 219 215 211 217 221 223 224 227 230 226 229 234 241 240 241 238 226 221 220 224 231 244 255 262 259 259 259 258 264 264 259 280 288 280 274 266 262 261 261 265
233 223 224 214 210 205 212 218 220 220 224 229 227 228 233 239 241 226 219 228 221 219 222 232 237 246 261 263 245 242 251 245 264 258 262 271 273 283 275 271 267 287 292
243 230 227 214 202 201 207 209 211 212 217 221 222 227 230 235 234 223 214 220 216 216 218 230 240 248 253 222 254 238 242 249 246 239 252 260 264 269 262 262 272 294 287
258 247 233 221 212 201 202 206 207 209 212 214 218 223 229 233 232 225 206 194 211 202 215 227 236 228 234 245 232 252 249 247 242 244 254 261 265 271 264 270 280 282 284
269 253 240 221 211 209 206 202 207 210 209 212 213 221 229 231 230 223 197 203 202 205 212 216 218 222 224 237 233 221 227 229 234 252 264 268 262 266 272 271 270 270 269
263 250 234 225 206 200 199 198 201 201 205 209 208 204 216 216 229 212 180 206 204 217 224 233 233 242 239 239 227 227 236 241 255 257 261 260 258 258 259 263 264 265 267
63 116 179 214 201 192 196 199 196 199 189 189 190 209 218 225 184 194 194 192 198 210 217 224 233 219 212 232 238 241 248 254 256 254 254 255 259 262 262 267 271 269 269
57 69 92 85 202 192 186 184 188 185 197 191 200 213 200 229 188 187 184 186 208 213 223 232 219 216 221 225 233 241 248 253 252 255 259 261 264 268 268 271 272 275 276
51 51 76 83 150 180 177 187 184 195 212 201 200 199 176 190 182 172 179 187 196 196 209 231 225 225 234 240 243 247 249 255 262 261 267 266 268 269 269 272 275 276 275
63 65 80 96 96 117 149 149 156 152 157 157 160 168 185 160 167 163 166 196 183 191 213 225 224 229 234 255 257 260 262 264 268 269 265 264 267 270 270 273 271 271 272
72 68 81 82 85 101 134 139 139 115 139 156 159 144 141 169 176 177 161 184 197 210 222 230 247 252 256 260 269 274 268 263 264 267 268 271 271 270 270 270 271 271 272
65 70 76 83 77 85 92 96 92 102 110 120 119 111 124 135 174 139 179 193 214 235 240 249 252 258 261 267 270 268 268 268 268 268 271 272 273 274 272 272 273 274 273
76 75 76 83 87 86 91 97 94 102 114 118 108 106 131 151 173 192 208 234 242 250 256 258 261 259 261 265 267 267 268 271 273 272 274 278 278 276 277 277 275 274 274
72 72 74 76 77 74 74 78 81 80 82 88 95 82 73 65 116 248 249 246 242 244 248 251 256 263 266 267 270 273 276 278 280 280 279 280 279 279 277 276 275 275 275
78 79 79 76 76 78 77 74 71 69 66 64 59 53 44 18 330 315 303 295 289 285 281 279 279 279 279 281 280 279 278 277 276 278 278 277 277 276 275 276 277 277 277
87 83 79 75 73 69 65 61 59 56 49 41 25 359 332 315 305 298 293 290 287 285 283 283 283 282 281 279 278 277 278 279 280 279 278 277 277 277 276 277 277 277 277
77 72 66 62 57 53 46 37 24 8 352 339 328 318 309 301 295 291 288 285 283 281 281 282 281 280 281 281 281 282 282 280 279 278 278 279 279 279 278 277 277 276 275
57 43 34 26 19 9 357 344 333 324 317 309 303 299 297 296 294 291 288 285 286 288 292 292 292 291 289 289 287 286 286 285 284 283 283 283 282 281 280 279 278 278 277
353 345 338 335 334 333 331 329 326 323 320 316 313 310 307 303 300 296 294 294 297 297 294 294 294 294 294 293 292 292 292 291 289 288 287 287 286 284 282 281 280 278 277
308 310 316 321 322 325 325 321 318 318 316 314 311 307 304 301 299 297 298 299 298 297 299 299 298 298 298 297 296 296 296 295 294 292 290 288 286 284 282 281 280 279 278
308 314 318 323 325 324 324 322 318 315 313 310 306 303 301 299 299 299 300 300 299 300 300 301 301 301 302 302 301 300 298 297 295 292 290 289 287 285 284 283 282 281 280
311 316 318 321 323 323 321 318 315 314 312 309 306 303 302 303 304 304 304 303 302 302 302 302 301 300 300 301 301 300 299 297 296 294 293 292 291 290 289 288 288 287 286
311 312 317 321 320 317 316 314 314 313 310 307 305 305 306 306 305 304 303 302 301 300 299 298 298 297 298 299 299 298 298 297 296 295 295 294 293 293 292 291 289 288 287
310 316 318 316 315 314 314 313 312 310 306 305 307 308 307 305 304 305 304 304 303 302 300 299 299 299 298 297 297 297 297 296 296 295 295 294 293 292 291 290 289 288 287
314 314 313 312 312 312 311 310 308 306 307 308 308 307 306 305 303 303 303 303 302 301 300 299 298 298 298 298 298 298 297 297 297 296 295 294 293 292 291 290 289 289 288
310 309 309 309 309 309 309 307 306 307 307 306 304 304 304 305 305 305 304 303 301 300 299 300 301 301 301 300 300 299 298 297 297 297 296 296 295 294 293 292 291 290 289
Height
5422 5424 5427 5431 5436 5443 5452 5464 5474 5483 5492 5502 5512 5522 5533 5542 5549 5553 5565 5582 5593 5606 5619 5625 5633 5639 5644 5645 5647 5650 5652 5657 5657 5661 5664 5664 5667 5663 5663 5664 5666 5668 5669
5423 5424 5427 5430 5433 5439 5448 5459 5468 5476 5485 5494 5504 5515 5525 5534 5542 5547 5558 5568 5584 5597 5608 5618 5626 5631 5634 5637 5640 5642 5644 5646 5647 5648 5652 5653 5656 5654 5654 5655 5655 5656 5656
5423 5424 5426 5428 5432 5437 5445 5453 5462 5470 5479 5488 5497 5507 5517 5527 5536 5542 5551 5560 5574 5587 5600 5607 5615 5622 5625 5622 5628 5632 5633 5636 5637 5639 5642 5644 5643 5643 5643 5645 5646 5647 5647
5424 5425 5426 5428 5432 5437 5443 5451 5458 5466 5475 5483 5492 5501 5511 5519 5527 5534 5542 5556 5564 5577 5589 5598 5605 5610 5614 5615 5618 5618 5622 5625 5627 5631 5631 5632 5632 5634 5633 5635 5635 5635 5635
5421 5422 5424 5427 5432 5437 5442 5449 5456 5464 5471 5480 5487 5495 5503 5511 5517 5523 5532 5546 5561 5571 5580 5588 5593 5599 5603 5604 5604 5609 5612 5614 5617 5619 5620 5621 5621 5621 5622 5621 5620 5620 5620
5420 5421 5423 5426 5430 5436 5442 5448 5454 5461 5468 5476 5483 5490 5496 5505 5507 5514 5525 5536 5553 5565 5574 5580 5586 5589 5594 5594 5596 5600 5602 5605 5607 5608 5608 5608 5608 5608 5608 5607 5606 5605 5605
5421 5420 5423 5426 5431 5435 5441 5447 5452 5459 5466 5474 5479 5485 5493 5498 5505 5513 5522 5534 5546 5556 5567 5570 5575 5578 5583 5586 5588 5589 5592 5594 5596 5596 5596 5595 5595 5595 5594 5593 5592 5591 5592
5426 5424 5425 5427 5431 5436 5440 5446 5452 5459 5465 5472 5477 5482 5489 5493 5502 5512 5522 5532 5542 5550 5557 5563 5565 5568 5570 5574 5578 5577 5581 5584 5585 5583 5583 5583 5582 5583 5582 5580 5580 5578 5578
5434 5431 5430 5431 5433 5438 5445 5451 5458 5464 5468 5471 5473 5484 5487 5495 5501 5509 5516 5524 5534 5538 5547 5553 5556 5560 5562 5565 5568 5569 5571 5572 5574 5573 5574 5573 5572 5570 5569 5567 5566 5566 5565
5445 5443 5440 5440 5442 5445 5450 5455 5459 5463 5467 5474 5479 5488 5492 5500 5506 5510 5514 5524 5528 5534 5539 5546 5551 5555 5556 5559 5559 5560 5561 5563 5563 5563 5563 5561 5558 5558 5556 5554 5552 5551 5550
5456 5453 5452 5452 5452 5453 5457 5461 5465 5467 5473 5481 5487 5493 5498 5502 5508 5512 5515 5523 5529 5534 5537 5541 5545 5546 5547 5549 5550 5551 5552 5552 5551 5550 5550 5548 5547 5543 5540 5539 5539 5538 5535
5467 5465 5463 5462 5462 5463 5465 5469 5473 5478 5483 5489 5495 5498 5502 5505 5510 5512 5517 5524 5525 5529 5532 5534 5538 5540 5540 5540 5540 5539 5539 5538 5537 5537 5534 5531 5530 5530 5527 5524 5523 5522 5520
5477 5475 5474 5474 5474 5474 5476 5480 5484 5488 5492 5496 5499 5502 5507 5511 5513 5516 5518 5522 5524 5525 5526 5528 5530 5532 5531 5530 5530 5529 5528 5526 5523 5523 5520 5517 5516 5514 5512 5512 5507 5506 5504
5487 5486 5485 5486 5486 5487 5488 5490 5492 5495 5498 5500 5504 5507 5509 5511 5514 5516 5518 5520 5522 5523 5523 5524 5523 5521 5520 5521 5520 5519 5516 5513 5509 5507 5505 5503 5502 5500 5497 5494 5492 5489 5485
5495 5495 5495 5495 5495 5497 5498 5499 5501 5502 5504 5506 5509 5511 5513 5514 5515 5515 5515 5515 5515 5515 5516 5515 5514 5512 5511 5508 5506 5503 5501 5500 5498 5493 5490 5487 5484 5482 5479 5475 5471 5467 5464
5504 5503 5503 5503 5503 5503 5503 5505 5506 5508 5510 5511 5513 5514 5514 5514 5513 5512 5512 5510 5509 5508 5506 5504 5501 5500 5497 5495 5493 5490 5487 5482 5477 5475 5472 5469 5466 5461 5457 5453 5448 5444 5441
5510 5510 5510 5510 5510 5511 5511 5511 5512 5512 5512 5512 5511 5511 5510 5510 5508 5506 5504 5502 5500 5497 5493 5490 5489 5487 5484 5479 5476 5470 5465 5462 5459 5456 5451 5446 5443 5438 5433 5428 5424 5421 5416
5512 5512 5511 5511 5511 5511 5511 5511 5511 5511 5510 5509 5508 5506 5504 5502 5500 5497 5493 5490 5487 5485 5482 5479 5474 5469 5464 5459 5454 5450 5447 5442 5437 5432 5427 5422 5417 5412 5407 5402 5398 5394 5390
5513 5512 5511 5511 5510 5509 5508 5506 5504 5502 5500 5497 5495 5493 5491 5488 5485 5482 5478 5475 5472 5469 5464 5459 5454 5449 5444 5440 5436 5431 5425 5419 5414 5408 5402 5396 5390 5384 5379 5375 5370 5365 5361
5511 5510 5508 5507 5505 5503 5501 5499 5496 5493 5491 5488 5486 5483 5480 5476 5472 5468 5464 5460 5455 5449 5444 5440 5434 5429 5425 5420 5414 5408 5402 5395 5388 5381 5375 5369 5363 5358 5353 5347 5342 5338 5334
5506 5504 5502 5500 5498 5496 5493 5490 5487 5484 5481 5479 5475 5471 5467 5462 5457 5453 5448 5443 5437 5432 5426 5420 5414 5408 5402 5396 5390 5383 5377 5370 5364 5357 5350 5343 5337 5330 5325 5320 5315 5311 5306
5500 5498 5496 5494 5491 5487 5484 5481 5477 5473 5470 5466 5461 5456 5451 5446 5441 5436 5430 5424 5418 5413 5407 5400 5394 5387 5381 5374 5366 5359 5352 5344 5336 5328 5321 5314 5307 5301 5296 5290 5284 5279 5275
5493 5491 5488 5484 5481 5477 5474 5470 5466 5461 5457 5452 5446 5441 5436 5431 5425 5419 5413 5407 5401 5394 5388 5381 5373 5365 5357 5349 5340 5332 5323 5316 5308 5300 5293 5286 5279 5272 5266 5261 5254 5248 5243
5485 5481 5478 5474 5470 5466 5462 5457 5453 5448 5442 5437 5431 5425 5419 5414 5408 5402 5396 5389 5383 5375 5367 5359 5350 5341 5332 5324 5315 5306 5298 5289 5281 5274 5267 5260 5253 5244 5237 5230 5223 5216 5210
5474 5471 5467 5463 5459 5454 5449 5444 5438 5432 5426 5420 5413 5407 5401 5395 5389 5383 5376 5368 5360 5351 5342 5333 5324 5315 5306 5297 5288 5280 5271 5262 5254 5246 5239 5232 5224 5215 5205 5198 5191 5184 5177
5464 5460 5456 5451 5446 5441 5435 5429 5423 5416 5410 5404 5398 5391 5385 5378 5370 5363 5354 5345 5336 5326 5316 5307 5297 5288 5279 5270 5261 5252 5243 5234 5226 5217 5210 5201 5193 5184 5175 5168 5160 5153 5146